Zurück zum Katalog

SL-14 DEB

AktivPO
NORAD 45299·DEBRIS·🇷🇺 Russia

Gestartet Aug 15, 1991 von Plesetsk Cosmodrome

Loading…

Nächste Überflüge (nächste 24 Stunden)

TLE

AktuellSource: Space-Track

Epoche: Sep 14, 2026, 13:22 UTC

1 45299U 91056AM  26257.55707753  .00000591  00000-0  15638-2 0  9991
2 45299  82.6362 114.8151 0062014 160.9538 199.3922 13.13670779314528

Verfolge SL-14 DEB in Echtzeit mit AllMySat

Download on the App Store